sat.trackr.live / text

‹ back to catalog

LUNA-2

NORAD 68470 · 2026-067BG

PAYLOAD ACTIVE UNKNOWN

§ Identity

Operator
Country
TURK
Launch date
2026-03-30
Launch site
AFWTR
Launch vehicle
Mass (kg)
RCS (m²)

External: N2YO · Heavens-Above · Gunter

§ Orbital elements

Epoch: 2026-05-24T20:24:22.705056Z

Period
94.92 min
Inclination
97.4461°
Eccentricity
0.0008185
Mean motion
15.17123544 rev/d
Perigee alt
508.9 km
Apogee alt
520.2 km
Semi-major
6,892.7 km
B*
2.6456e-4
RAAN
103.5149°
Arg perigee
137.5425°
Mean anomaly
222.6443°
Rev number
839

§ Raw data

LUNA-21 68470U 26067BG  26144.85026279  .00005184  00000+0  26456-3 0  99952 68470  97.4461 103.5149 0008185 137.5425 222.6443 15.17123544  8396

JSON: /api/v1/satellites/68470 · /tle

For live sub-satellite position, see the globe view (requires WebGL).

§ Visibility from observer

Set your observer location to see the next 7 days of passes ≥ 10°. The values pass through the URL so the page stays shareable.

No JS? Fill the form by hand. The geolocation button needs JavaScript.

§ Radio — SatNOGS DB

ModeDescriptionDownlinkUplink
GMSK Mode U - GMSK9k6 - Transmitter 401.725 MHz

1 transmitter · refreshed weekly from db.satnogs.org